Printer-friendly version

IAU Minor Planet Center

Minor Planet Center

P/2009 Q4 (Boattini)

Orbital Elements

The following orbital elements are taken from MPC 67413:
P/2009 Q4 (Boattini)
Epoch 2009 Nov. 25.0 TT = JDT 2455160.5
T 2009 Nov. 19.9298 TT                                  MPC
q   1.320785             (2000.0)            P               Q
n   0.1774136      Peri.  320.0200      +0.0310551      -0.9881050
a   3.136737       Node   127.6677      +0.9587836      -0.0131300
e   0.578930       Incl.   10.9686      +0.2824351      +0.1532193
P   5.56
From 166 observations 2009 Aug. 26-Oct. 29, mean residual 0".6.
Elements are also available for the current standard epoch:
P/2009 Q4 (Boattini)
Epoch 2010 Jan. 4.0 TT = JDT 2455200.5
T 2009 Nov. 19.9300 TT                                  MPC
q   1.320785             (2000.0)            P               Q
n   0.1774053      Peri.  320.0202      +0.0310531      -0.9881048
a   3.136835       Node   127.6676      +0.9587837      -0.0131322
e   0.578943       Incl.   10.9687      +0.2824349      +0.1532201
P   5.56
An explanation of the orbital elements is available.

These orbital elements are also available in forms suitable for loading into a number of popular planetarium-type software programs.


Ephemeris

The following ephemeris is at intervals of five days. A daily ephemeris covering the same time interval is also available.

Personalized ephemerides for this (and other) objects may be generated using the Minor Planet & Comet Ephemeris Service.

Recent magnitude estimates for this comet (as reported to the ICQ) may be available.

Date    TT    R. A. (2000) Decl.     Delta      r     Elong.  Phase   m1    m2

WARNING!

This comet gets close to the sun during the period covered in the ephemeris below. Observers are warned to be wary of observing comets near the sun. NEVER point any kind of optical instrument at the sun--instant blindness will be the probable result.

2009 10 26 07 39.95 +05 16.7 0.811 1.351 96.4 47.0 16.4 2009 10 31 07 56.13 +04 49.0 0.785 1.340 97.1 47.3 16.2 2009 11 05 08 12.04 +04 22.6 0.761 1.332 98.0 47.5 16.2 2009 11 10 08 27.61 +03 58.6 0.740 1.326 99.0 47.5 16.1 2009 11 15 08 42.74 +03 38.0 0.719 1.322 100.2 47.4 16.0 2009 11 20 08 57.34 +03 22.0 0.701 1.321 101.5 47.1 15.9 2009 11 25 09 11.32 +03 11.6 0.683 1.322 103.1 46.7 15.9 2009 11 30 09 24.61 +03 07.7 0.667 1.326 104.9 46.0 15.8 2009 12 05 09 37.13 +03 11.4 0.653 1.332 107.0 45.0 15.8 2009 12 10 09 48.78 +03 23.5 0.639 1.340 109.4 43.9 15.8 2009 12 15 09 59.45 +03 44.9 0.626 1.351 112.1 42.4 15.8 2009 12 20 10 09.06 +04 16.6 0.615 1.364 115.2 40.7 15.8 2009 12 25 10 17.53 +04 59.0 0.604 1.379 118.6 38.8 15.8 2009 12 30 10 24.78 +05 52.4 0.596 1.396 122.4 36.5 15.8 2010 01 04 10 30.76 +06 56.7 0.589 1.415 126.5 33.9 15.9 2010 01 09 10 35.41 +08 11.5 0.584 1.436 131.1 31.1 15.9 2010 01 14 10 38.70 +09 36.1 0.581 1.458 135.9 28.0 16.0 2010 01 19 10 40.63 +11 08.9 0.581 1.482 141.1 24.6 16.0 2010 01 24 10 41.28 +12 47.3 0.585 1.507 146.5 21.1 16.1 2010 01 29 10 40.77 +14 28.6 0.592 1.533 152.0 17.5 16.2 2010 02 03 10 39.27 +16 09.5 0.604 1.561 157.5 14.0 16.3 2010 02 08 10 36.96 +17 46.8 0.621 1.590 162.7 10.6 16.5 2010 02 13 10 34.09 +19 17.4 0.642 1.619 167.0 7.9 16.6 2010 02 18 10 30.93 +20 38.5 0.668 1.649 169.2 6.5 16.8 2010 02 23 10 27.75 +21 48.2 0.700 1.680 168.2 6.9 17.0 2010 02 28 10 24.81 +22 45.4 0.737 1.712 164.8 8.8 17.2 2010 03 05 10 22.29 +23 30.0 0.778 1.744 160.3 11.0 17.4 2010 03 10 10 20.32 +24 02.3 0.825 1.777 155.6 13.4 17.6 2010 03 15 10 19.01 +24 23.1 0.876 1.810 150.8 15.6 17.8 2010 03 20 10 18.42 +24 33.4 0.932 1.843 146.0 17.6 18.0 2010 03 25 10 18.57 +24 34.3 0.991 1.877 141.5 19.3 18.2 2010 03 30 10 19.44 +24 27.1 1.055 1.911 137.1 20.8 18.4 2010 04 04 10 20.99 +24 12.9 1.122 1.945 132.8 22.2 18.6 2010 04 09 10 23.16 +23 52.7 1.192 1.980 128.7 23.2 18.8 2010 04 14 10 25.91 +23 27.4 1.266 2.014 124.8 24.2 19.1 2010 04 19 10 29.17 +22 57.7 1.342 2.048 120.9 24.9 19.3 2010 04 24 10 32.91 +22 24.3 1.421 2.083 117.2 25.4 19.4 2010 04 29 10 37.05 +21 47.8 1.502 2.117 113.6 25.8 19.6 2010 05 04 10 41.55 +21 08.7 1.585 2.152 110.1 26.1 19.8 2010 05 09 10 46.35 +20 27.3 1.670 2.186 106.7 26.2 20.0 2010 05 14 10 51.42 +19 44.1 1.757 2.220 103.4 26.3 20.2 2010 05 19 10 56.73 +18 59.3 1.845 2.255 100.1 26.2 20.4 2010 05 24 11 02.24 +18 13.1 1.935 2.289 96.9 26.1 20.5 2010 05 29 11 07.92 +17 25.9 2.025 2.323 93.7 25.8 20.7 2010 06 03 11 13.75 +16 37.8 2.116 2.357 90.6 25.5 20.9 2010 06 08 11 19.70 +15 49.0 2.208 2.390 87.6 25.1 21.0 2010 06 13 11 25.76 +14 59.6 2.300 2.424 84.5 24.6 21.2 2010 06 18 11 31.92 +14 09.8 2.392 2.457 81.5 24.1 21.3 2010 06 23 11 38.16 +13 19.7 2.485 2.491 78.5 23.6 21.4 2010 06 28 11 44.46 +12 29.4 2.577 2.524 75.6 23.0 21.6 2010 07 03 11 50.82 +11 39.0 2.668 2.556 72.6 22.3 21.7 2010 07 08 11 57.23 +10 48.6 2.759 2.589 69.7 21.6 21.8 2010 07 13 12 03.69 +09 58.3 2.849 2.621 66.8 20.9 22.0 2010 07 18 12 10.18 +09 08.2 2.939 2.653 63.9 20.1 22.1 2010 07 23 12 16.70 +08 18.3 3.027 2.685 61.0 19.3 22.2 2010 07 28 12 23.24 +07 28.8 3.113 2.717 58.1 18.5 22.3 2010 08 02 12 29.81 +06 39.7 3.198 2.749 55.2 17.7 22.4 2010 08 07 12 36.40 +05 51.0 3.281 2.780 52.3 16.8 22.5 2010 08 12 12 43.00 +05 02.9 3.362 2.811 49.4 15.9 22.6 2010 08 17 12 49.61 +04 15.4 3.441 2.841 46.5 15.0 22.7 2010 08 22 12 56.24 +03 28.5 3.518 2.872 43.6 14.1 22.8 2010 08 27 13 02.87 +02 42.4 3.592 2.902 40.7 13.1 22.9 2010 09 01 13 09.50 +01 57.0 3.664 2.932 37.8 12.2 23.0 2010 09 06 13 16.14 +01 12.4 3.732 2.962 34.9 11.2 23.1 2010 09 11 13 22.78 +00 28.8 3.798 2.992 32.0 10.3 23.2 2010 09 16 13 29.41 -00 13.9 3.860 3.021 29.0 9.3 23.2 2010 09 21 13 36.04 -00 55.6 3.919 3.050 26.1 8.3 23.3 2010 09 26 13 42.66 -01 36.2 3.975 3.079 23.2 7.4 23.4 2010 10 01 13 49.27 -02 15.7 4.026 3.107 20.4 6.4 23.4 2010 10 06 13 55.86 -02 54.1 4.074 3.135 17.6 5.5 23.5 2010 10 11 14 02.43 -03 31.2 4.118 3.163 14.9 4.6 23.6 2010 10 16 14 08.98 -04 07.1 4.158 3.191 12.4 3.8 23.6 2010 10 21 14 15.49 -04 41.6 4.193 3.219 10.2 3.2 23.7 2010 10 26 14 21.97 -05 14.7 4.225 3.246 8.8 2.7 23.7 2010 10 31 14 28.41 -05 46.4 4.252 3.273 8.4 2.6 23.8 2010 11 05 14 34.80 -06 16.7 4.274 3.300 9.3 2.8 23.8 2010 11 10 14 41.13 -06 45.5 4.292 3.326 11.2 3.3 23.9 2010 11 15 14 47.40 -07 12.6 4.306 3.352 13.7 4.0 23.9 2010 11 20 14 53.60 -07 38.2 4.314 3.378 16.5 4.8 24.0 2010 11 25 14 59.71 -08 02.2 4.318 3.404 19.5 5.6 24.0 2010 11 30 15 05.73 -08 24.5 4.318 3.430 22.8 6.4 24.0

Valid HTML 4.01!